TimeMST,TemperatureF,Dew PointF,Humidity,Sea Level PressureIn,VisibilityMPH,Wind Direction,Wind SpeedMPH,Gust SpeedMPH,PrecipitationIn,Events,Conditions,WindDirDegrees,DateUTC
12:55 AM,39.2,21.2,49,29.75,25.0,SSW,2.3,-,N/A,,Mostly Cloudy,210,2012-12-01 07:55:00
1:55 AM,42.8,21.2,42,29.75,25.0,SW,1.2,-,N/A,,Mostly Cloudy,220,2012-12-01 08:55:00
2:55 AM,42.8,21.2,42,29.76,25.0,West,4.6,-,N/A,,Mostly Cloudy,280,2012-12-01 09:55:00
3:55 AM,42.8,21.2,42,29.78,25.0,SW,4.6,-,N/A,,Mostly Cloudy,220,2012-12-01 10:55:00
4:55 AM,46.4,24.8,43,29.82,25.0,NW,8.1,-,N/A,,Mostly Cloudy,310,2012-12-01 11:55:00
5:55 AM,46.4,24.8,43,29.85,25.0,SW,9.2,-,N/A,,Scattered Clouds,220,2012-12-01 12:55:00
6:55 AM,51.8,24.8,35,29.86,70.0,WNW,15.0,28.8,N/A,,Scattered Clouds,290,2012-12-01 13:55:00
7:55 AM,51.8,24.8,35,29.89,70.0,WNW,9.2,-,N/A,,Mostly Cloudy,300,2012-12-01 14:55:00
8:55 AM,55.4,24.8,31,29.88,70.0,WNW,8.1,-,N/A,,Mostly Cloudy,300,2012-12-01 15:55:00
9:55 AM,57.2,24.8,29,29.88,70.0,South,4.6,-,N/A,,Mostly Cloudy,180,2012-12-01 16:55:00
10:55 AM,60.8,21.2,22,29.86,70.0,West,17.3,20.7,N/A,,Mostly Cloudy,280,2012-12-01 17:55:00
11:55 AM,62.6,21.2,20,29.85,70.0,WNW,9.2,-,N/A,,Mostly Cloudy,300,2012-12-01 18:55:00
12:55 PM,62.6,21.2,20,29.84,70.0,West,5.8,-,N/A,,Mostly Cloudy,270,2012-12-01 19:55:00
1:55 PM,62.6,21.2,20,29.83,70.0,NNW,6.9,-,N/A,,Mostly Cloudy,340,2012-12-01 20:55:00
2:55 PM,64.4,21.2,19,29.82,70.0,NE,10.4,-,N/A,,Mostly Cloudy,40,2012-12-01 21:55:00
3:55 PM,62.6,21.2,20,29.84,70.0,NE,4.6,-,N/A,,Mostly Cloudy,50,2012-12-01 22:55:00
4:55 PM,51.8,21.2,30,29.88,70.0,East,8.1,-,N/A,,Mostly Cloudy,100,2012-12-01 23:55:00
5:55 PM,46.4,23.0,40,29.92,70.0,SE,10.4,-,N/A,,Mostly Cloudy,130,2012-12-02 00:55:00
6:55 PM,46.4,24.8,43,29.93,25.0,SE,11.5,-,N/A,,Mostly Cloudy,140,2012-12-02 01:55:00
7:55 PM,48.2,24.8,40,29.93,25.0,SSE,10.4,-,N/A,,Mostly Cloudy,150,2012-12-02 02:55:00
8:55 PM,44.6,23.0,43,29.93,25.0,WSW,4.6,-,N/A,,Mostly Cloudy,240,2012-12-02 03:55:00
9:55 PM,42.8,21.2,42,29.92,25.0,SSW,9.2,-,N/A,,Mostly Cloudy,210,2012-12-02 04:55:00
10:55 PM,41.0,21.2,45,29.92,25.0,SSW,9.2,-,N/A,,Mostly Cloudy,200,2012-12-02 05:55:00
11:55 PM,41.0,21.2,45,29.90,25.0,South,8.1,-,N/A,,Mostly Cloudy,180,2012-12-02 06:55:00